Starlink 3635

operational
NORAD ID: 51981 Int'l Des: 2022-025 Owner: SPXS Country: US Constellation: starlink
LEOCIRCULAR

Über Starlink 3635

Beschreibung wird geladen...

Live-Position

3D-Globus wird geladen...

Nächste Überflüge

Höhenverlauf

Altitude vs Time

uPlot chart will show altitude changes over time

Zweizeiliger Elementsatz

1 51981U 22025AB 25354.39220081 -.00000198 00000-0 56660-5 0 9996
2 51981 53.2187 35.1023 0001326 82.3431 277.7712 15.08841650209089
Epoch: 20. Dez. 2025 • Age: 15 hours

Aktueller Status

Höhe 540.6 km
Geschwindigkeit 7.59 km/s
Subsatellitenpunkt 0.77°N, 114.21°E
Startdatum 9. März 2022
Alter 3.7 years
Typ internet

Technische Details

Klassifizierung Payload
Masse 297.00 kg
Trockenmasse 275.00 kg
Gesamtmasse 297.00 kg
Länge 0.20 m
Durchmesser 2.80 m
Spannweite 9.00 m
Form Box + pan
Hersteller SPXS
Bus-Typ Starlink
Phasenstatus In Orbit
Besitzer/Staat SPXS/US

Große Konstellationen

Loading constellations...